FENGYUN 1C DEB, 32137

Orbit data source: Space-Track

FENGYUN 1C DEB, 32137 is space debris in SSO originally from a launch on Mon, 10 May 1999 UTC launched from the Taiyaun Space Center, China (TSC). Fengyun 1C debris stems from the Chinese weather satellite Fengyun-1C, which was intentionally destroyed by a Chinese anti-satellite missile in 2007. This event dramatically increased the amount of space debris, with thousands of trackable fragments posing hazards to satellites and human spaceflight. The Fengyun 1C debris cloud has become a focal point in discussions about space sustainability and the need for international regulations to prevent the creation of new debris.

Loading next visibility...
Identifier
32137, 1999-025CSF
Orbit
SSO
Country
Flag of CNCN / PRC
Related business
Manufacturer
Unknown
Mission
Spacecraft
Bus & Motor
Unknown
Mass
Unknown
Launch date (UTC)
1999-05-10 (27 years ago)
Launch vehicle
Unknown
Launch site
Taiyaun Space Center, China (TSC)
Object type
Payload
Rocket body
Debris
Shape & HBR
Unknown shape, 0.1 m
Radar Cross Section
Small (<0.1 m²)

Expand to show TLE details & history
Last TLE update: 6 days ago

TLE from 6 days ago
0 FENGYUN 1C DEB
1 32137U 99025CSF 26167.65947071  .00010924  00000-0  96247-3 0  9999
2 32137  98.4642 310.7904 0175826 155.6696 205.2947 14.85463476694873
Epoch: 2026-06-16T15:49Z
TLE epoch observation values (Epoch: 2026-06-16T15:49:38.269Z)
Latitude
-0.00001°
Longitude
168.45262°
Altitude
726.677 km
Speed
7.432 km/s
True Right ascension
20h 43m 09s
True Declination
0° 00' 00"
Sunlit
Object was in full shadow at epoch
Visualization orbit readout
Latitude
Unknown
Longitude
Unknown
Altitude
Unknown
Speed
Unknown
Apparent Right ascension
Unknown
Apparent Declination
Unknown
Sunlit
N/A
Visualization observer readout
Local Sidereal Time
23:07:56
Azimuth
Unknown
Elevation
Unknown
Doppler factor
Unknown
Orbital elements
Apogee altitude
732.045 km
Perigee altitude
486.335 km
Semi-major axis
6,987.327 km
Eccentricity
0.01758
Inclination
98.4642°
RAAN
310.7904°
Arg. of periapsis
155.6696°
True anomaly
204.45064°
Mean anomaly
205.2947°
Eccentric anomaly
204.87101°
Mean motion
3.71601 °/min
Orbital period
96.88 mins
BSTAR
0.00096247
Loading maneuver chart data...
Computing Atmospheric mass density...

Documentation

Showing up to 5 results
|